GFSWCAN_700_spd_093.txt.gz
Wind_Speed
27 26 24 22 22 22 21 21 21 21 20 19 20 20 22 26 29 28 26 26 23 33 38 31 25 23 15 19 20 16 13 17 12 12 9 9 8 8 8 13 13 19 17 18 15 5 9 12 13 6 4 7 6 8
25 24 23 22 23 22 21 22 22 21 20 18 21 20 22 24 29 30 28 24 23 24 25 21 30 28 23 21 22 16 16 8 11 9 11 5 7 8 6 4 3 13 20 8 10 8 9 9 5 8 4 3 6 8
23 23 21 22 23 23 25 23 22 24 23 23 25 20 20 23 26 32 29 26 25 27 28 28 25 17 25 21 17 22 20 18 12 15 11 6 7 8 8 8 7 8 14 13 14 12 12 12 12 10 8 7 8 12
21 19 20 21 22 23 23 23 24 23 21 21 23 25 23 21 27 29 31 27 25 23 26 28 15 28 20 26 26 9 9 15 13 11 14 14 14 11 12 7 6 9 7 12 10 12 17 7 3 5 8 7 10 16
17 17 17 19 20 22 24 25 25 26 28 24 23 24 26 22 26 28 27 27 25 22 10 8 17 21 22 25 23 21 17 15 15 14 15 14 15 16 19 6 8 9 11 3 11 8 11 10 2 8 8 12 13 14
13 13 13 14 19 23 24 27 28 29 33 33 30 26 27 27 25 30 30 28 20 22 20 19 5 19 21 15 21 22 22 21 20 19 16 15 14 9 1 8 16 13 11 9 4 2 3 7 7 10 13 16 18 16
10 10 8 12 20 22 23 24 26 28 29 27 27 28 25 29 31 34 31 26 22 20 22 15 18 13 20 14 16 22 22 26 23 19 20 16 13 9 12 14 9 8 10 10 7 5 6 8 12 14 14 21 23 18
9 8 11 10 19 23 23 25 22 25 24 27 28 28 27 27 28 32 28 15 24 21 21 9 7 9 16 14 16 18 21 21 22 22 15 9 13 12 9 15 15 12 9 8 6 11 12 15 16 15 18 20 19 18
6 7 6 7 16 19 20 18 13 20 25 27 31 28 28 29 32 29 26 20 22 22 13 8 8 8 16 16 16 14 18 19 12 18 14 13 13 11 10 4 5 9 6 6 12 15 15 14 16 16 16 20 21 20
4 4 1 8 11 12 16 16 20 29 29 37 36 34 33 31 28 27 21 22 25 23 19 8 11 12 21 21 17 13 13 13 4 6 8 12 15 17 14 12 10 11 15 17 19 20 19 21 21 22 23 23 23 23
2 2 2 4 4 10 11 15 22 30 35 36 37 14 30 29 22 23 13 19 14 10 17 20 6 5 11 22 20 15 8 7 3 5 9 6 10 19 20 23 21 19 18 19 21 22 22 23 26 27 23 23 23 23
4 4 5 3 4 9 9 15 17 19 27 33 29 31 33 28 11 6 12 9 8 7 9 17 18 7 5 6 14 11 8 7 4 6 8 7 15 16 16 16 16 19 19 18 16 17 18 20 22 23 23 23 23 23
8 6 4 5 9 12 12 13 16 19 26 30 35 22 13 6 6 7 9 9 8 10 12 14 17 14 8 8 6 7 10 9 6 8 6 9 13 14 16 19 19 20 19 19 21 20 19 20 21 21 21 22 23 22
11 9 11 11 14 18 19 19 18 32 29 14 8 8 5 6 7 8 16 15 12 7 8 12 13 14 15 9 3 6 7 7 7 7 9 14 12 13 16 17 18 18 18 17 18 18 18 19 19 20 20 19 18 17
12 11 15 17 15 16 19 26 26 26 13 6 6 4 4 4 9 10 17 15 14 9 8 10 11 10 11 6 3 4 7 7 7 9 13 11 11 12 15 15 14 15 15 15 15 15 16 16 16 16 15 15 14 12
17 20 21 19 18 14 18 21 21 18 11 1 2 6 5 6 8 10 14 13 12 10 10 12 8 6 6 6 7 6 5 6 8 13 10 10 10 8 8 8 9 10 9 9 9 9 9 9 8 8 7 5 4 2
21 17 17 16 13 12 8 6 4 2 3 3 8 6 10 12 12 12 11 10 13 20 16 8 6 4 5 6 6 7 8 9 7 8 7 5 5 5 6 6 6 5 4 4 3 3 4 4 3 4 4 4 4 4
13 13 12 10 7 8 7 7 5 3 10 18 15 15 13 13 13 13 13 15 17 17 14 10 7 9 7 6 6 8 6 4 3 3 3 4 4 4 3 2 1 1 2 3 3 3 4 4 5 6 6 6 6 6
14 13 10 8 8 5 7 6 8 10 17 16 15 13 11 10 10 11 9 8 9 7 8 8 5 8 8 8 6 6 5 3 2 2 2 1 1 0 1 1 2 2 2 2 3 3 3 3 4 4 4 3 3 3
13 11 8 6 6 2 5 8 14 12 17 16 13 11 10 9 7 5 5 4 3 1 3 4 9 15 11 9 7 4 4 4 3 2 1 1 1 1 1 2 2 3 3 3 3 3 3 3 3 4 5 6 7 7
12 11 9 7 4 6 8 8 10 17 18 13 13 10 10 8 6 5 3 3 3 9 18 17 15 12 10 8 6 4 1 1 2 2 2 2 3 4 4 5 5 5 6 7 7 7 7 7 8 9 10 10 10 10
10 12 11 8 5 8 7 10 15 15 14 14 11 12 12 11 11 10 10 10 19 19 16 15 12 9 7 5 2 1 1 3 3 4 4 4 5 6 6 7 7 8 8 9 9 10 10 11 11 12 12 12 12 12
10 10 11 7 3 4 12 17 17 14 9 14 14 14 13 14 15 14 13 17 18 16 13 11 8 6 5 3 2 2 3 3 4 5 6 6 6 7 7 8 8 8 9 9 10 11 12 13 13 12 12 12 12 11
12 12 9 7 4 4 13 9 12 14 15 15 14 15 15 16 16 16 17 15 12 10 8 6 6 5 5 5 5 5 5 6 6 6 6 6 7 7 8 9 9 10 10 10 11 12 12 12 12 12 11 10 10 11
10 8 5 6 7 9 10 12 15 17 17 20 17 15 11 10 13 14 12 10 9 8 7 7 7 7 7 7 7 7 7 6 6 7 7 8 8 9 10 10 11 11 11 11 11 11 10 11 11 11 12 12 12 12
7 5 7 11 12 12 13 14 15 21 21 15 11 13 14 9 6 6 8 9 8 7 8 8 9 9 9 8 8 9 9 9 7 8 9 9 9 10 9 7 7 12 12 11 11 11 12 12 12 12 12 12 12 12
5 5 11 13 15 16 19 17 23 20 13 11 17 12 5 4 4 6 7 7 7 7 8 9 10 10 11 11 10 10 10 10 9 9 9 9 10 11 11 11 10 10 11 12 11 10 11 11 11 11 12 12 12 11
8 9 14 15 19 21 23 26 22 13 10 17 11 6 4 4 9 9 9 8 8 7 8 9 10 11 11 11 11 10 10 10 10 10 10 10 10 11 11 11 10 10 10 10 10 10 10 10 11 11 10 9 9 9
11 16 19 22 23 25 25 21 13 12 16 13 10 11 13 12 11 10 9 8 8 8 9 11 11 12 11 10 10 10 10 10 10 11 11 9 9 11 11 11 11 10 10 10 10 10 10 9 9 8 8 7 8 8
23 26 26 27 29 25 20 16 20 21 19 15 12 13 13 12 11 10 8 7 7 8 10 11 12 11 10 9 10 10 11 12 13 13 12 12 12 12 12 11 11 10 9 8 9 8 8 8 7 7 8 8 9 10
29 29 30 29 26 23 25 25 24 21 19 17 15 13 11 11 10 8 7 7 8 10 11 12 13 12 11 10 10 11 13 13 14 13 12 12 13 14 13 11 9 9 9 8 7 7 7 8 9 9 10 10 11 12
29 28 28 29 31 31 31 29 24 21 19 15 13 11 9 8 7 6 6 7 9 11 11 12 13 12 12 12 13 14 14 15 15 14 13 12 13 13 11 10 9 8 8 7 8 8 9 10 10 11 11 11 12 12
24 26 28 30 32 31 29 27 23 20 16 14 11 9 7 6 4 4 5 7 9 11 13 13 13 13 13 13 15 15 16 16 15 13 13 13 13 12 10 8 8 8 8 9 9 9 10 10 11 12 12 13 13 14

GFSWCAN_700_spd_096.txt.gz
Wind_Speed
30 28 27 26 24 22 20 19 18 17 18 17 15 15 17 20 23 26 23 22 26 26 28 26 22 22 15 14 17 10 10 10 11 9 5 5 5 6 7 10 15 16 12 12 12 6 8 7 9 6 4 10 6 6
29 28 27 25 23 21 20 20 19 18 19 19 18 16 16 20 22 25 27 24 24 24 27 16 20 20 21 20 16 19 13 4 2 5 7 6 6 5 9 10 5 6 8 7 7 6 11 5 6 2 5 2 2 5
28 27 25 24 22 20 19 20 21 21 20 19 17 18 20 16 22 24 25 25 25 24 25 25 18 9 18 21 22 27 18 11 14 15 7 8 6 6 6 8 6 3 9 10 9 10 11 7 9 5 5 6 9 8
25 25 24 21 19 18 18 20 21 22 21 22 20 22 23 20 19 23 25 26 25 24 24 21 12 19 18 17 18 18 17 17 12 12 12 11 11 8 10 11 15 4 1 9 12 16 10 9 3 4 1 3 6 9
22 22 20 17 17 17 17 20 22 24 26 24 22 20 20 21 20 19 23 22 23 22 13 6 10 19 19 20 17 14 12 10 11 12 6 9 12 13 14 15 14 4 2 6 5 8 16 16 11 3 3 4 7 11
20 17 16 16 14 13 17 23 24 27 29 28 25 24 20 20 22 20 26 24 23 22 20 21 4 4 17 13 17 16 14 14 14 14 12 11 11 10 8 4 9 10 5 4 5 6 4 3 5 7 7 8 9 13
16 15 15 13 11 16 19 22 22 23 26 29 30 29 23 21 28 29 27 19 17 20 19 12 8 7 17 19 14 14 17 20 20 17 17 14 12 9 8 13 9 3 5 8 9 8 6 4 6 8 8 10 11 13
15 13 12 10 15 17 21 24 24 25 26 29 28 29 27 25 28 29 26 16 21 17 18 9 10 6 17 17 17 16 18 22 22 22 18 13 11 17 7 11 10 10 10 7 2 4 5 7 9 9 10 10 11 13
12 9 8 8 9 10 18 16 17 14 28 27 31 29 32 32 34 25 25 22 13 23 12 10 8 5 18 18 17 17 17 17 14 14 19 13 17 8 8 8 7 8 8 4 4 10 13 11 11 12 13 14 16 18
11 7 6 4 2 7 10 8 12 22 27 33 38 36 38 33 24 29 21 17 17 26 21 16 11 12 10 23 18 17 16 15 7 11 14 17 17 16 12 7 7 5 7 12 15 18 18 19 18 18 17 19 21 19
11 7 6 4 1 8 5 8 19 25 35 40 37 23 28 31 23 25 11 17 14 10 17 21 14 6 5 20 17 13 7 7 5 6 10 7 11 15 13 13 13 18 21 22 21 21 22 20 18 19 20 20 19 19
10 8 6 3 7 4 7 17 21 32 36 33 28 32 29 22 12 6 12 12 8 9 7 14 20 6 2 5 13 15 8 9 5 10 8 4 10 12 14 15 17 17 18 19 19 19 18 19 19 18 17 17 19 19
11 9 5 9 12 17 15 22 26 27 27 24 34 23 19 7 6 8 10 9 8 11 11 14 17 14 6 4 1 5 8 7 7 10 6 8 8 10 11 14 17 17 17 16 16 17 18 18 17 17 17 18 19 19
13 10 10 13 20 19 16 19 23 27 28 24 9 11 7 7 8 9 16 17 10 11 13 12 14 11 11 5 3 4 6 5 6 5 8 12 13 14 16 16 15 14 13 13 13 14 15 16 17 17 17 16 16 14
14 14 17 23 23 25 25 25 33 18 11 7 7 5 4 6 12 14 18 16 13 10 12 15 14 13 10 5 4 3 6 5 6 8 12 11 11 11 13 15 15 14 13 13 12 12 12 12 12 12 11 11 10 8
15 18 24 21 27 28 29 25 17 11 5 5 5 9 7 8 10 11 14 14 13 11 10 10 8 6 6 5 6 6 5 6 6 8 9 9 11 11 11 10 10 9 9 9 9 9 8 6 5 4 3 3 3 2
20 20 21 21 21 24 25 20 21 15 7 3 7 6 3 6 12 14 16 14 14 17 18 8 7 6 6 6 7 8 8 7 5 5 7 7 6 6 6 7 7 7 7 6 5 5 3 3 3 3 4 5 4 4
21 19 16 19 19 15 8 5 3 4 7 11 11 12 11 10 12 12 12 12 15 18 18 9 6 9 6 6 6 8 6 5 4 4 3 4 4 5 5 4 3 2 2 1 1 1 2 3 4 5 5 4 4 3
16 15 13 11 11 10 9 6 6 13 17 16 17 15 11 12 12 11 10 12 15 16 12 9 5 8 8 5 4 4 3 3 1 1 2 2 2 1 1 1 1 0 1 1 1 1 1 2 2 1 0 2 3 4
15 13 11 10 9 8 5 10 17 14 17 16 14 12 12 13 11 10 10 10 11 11 9 7 5 8 7 8 7 5 2 1 1 1 2 1 2 2 2 2 1 1 2 2 2 2 3 3 4 5 6 6 7 8
15 12 9 8 6 8 11 11 11 18 18 15 13 11 12 10 8 7 5 4 4 4 13 16 13 10 8 6 5 3 1 2 2 4 4 5 5 5 4 4 4 5 5 5 6 6 7 8 8 9 9 10 10 10
12 11 9 8 10 11 9 13 17 17 16 15 13 12 12 12 10 8 10 12 20 18 15 15 11 8 5 3 1 2 3 5 5 6 6 6 6 6 7 8 8 8 7 8 9 9 10 10 11 12 12 12 11 11
12 12 9 6 5 7 16 21 19 16 11 17 16 13 14 16 17 17 12 16 18 17 14 12 9 6 4 3 2 3 3 4 5 5 5 6 7 7 7 7 8 9 9 9 10 11 11 11 12 12 12 12 12 11
11 11 8 3 3 7 18 12 15 16 19 17 14 15 16 17 17 16 18 17 13 12 12 9 7 7 6 5 5 6 6 5 5 6 7 7 7 8 9 9 8 8 9 10 10 11 11 11 11 11 11 11 11 11
9 7 5 6 6 11 12 14 17 18 19 19 20 17 16 13 13 14 12 13 13 13 12 10 8 7 7 7 7 7 6 7 7 7 7 8 9 9 9 10 10 10 10 10 11 11 11 11 11 11 12 12 12 12
7 4 6 10 12 12 12 16 16 22 23 17 13 16 18 10 5 6 11 13 13 12 11 10 10 9 9 11 11 10 8 8 9 9 9 9 8 8 8 10 11 12 11 11 11 12 12 12 12 12 12 11 11 12
6 4 9 12 12 13 18 17 24 23 13 10 19 16 6 4 4 9 11 12 12 11 11 10 10 11 11 10 10 10 10 9 9 9 9 9 10 10 9 10 10 12 11 11 10 10 11 11 11 11 11 11 11 11
7 6 8 12 12 16 20 26 23 14 9 19 15 7 5 5 10 11 12 10 10 9 9 9 9 11 11 11 11 10 9 9 9 9 9 10 11 11 11 11 12 11 11 11 10 10 10 10 10 10 11 11 10 9
6 7 11 14 16 20 25 22 15 13 16 15 11 11 15 13 14 12 11 9 8 8 8 9 10 11 11 10 9 9 9 10 10 10 10 10 10 11 11 12 11 11 11 10 10 10 9 9 8 8 7 7 8 9
10 14 18 20 23 24 23 17 15 20 17 15 13 14 14 14 14 12 10 8 7 7 8 9 10 11 11 11 10 9 10 11 11 11 10 10 9 10 12 12 10 8 9 9 9 8 7 7 6 7 7 8 9 10
19 22 24 26 25 22 22 24 24 23 20 19 17 13 11 13 13 12 9 7 6 5 7 8 9 10 11 12 12 12 12 13 13 13 12 11 11 11 11 10 9 8 7 6 7 7 7 7 8 8 9 10 11 11
24 25 27 28 27 29 30 30 27 24 22 18 16 14 13 11 11 9 7 5 5 6 8 10 12 13 13 12 12 13 14 14 14 13 12 11 11 11 11 9 8 7 7 7 7 8 8 8 8 9 9 10 11 12
22 23 22 26 31 33 31 29 25 22 19 17 14 13 12 10 9 7 5 4 5 6 8 10 12 13 14 14 14 15 15 15 14 12 11 11 11 10 9 8 7 7 7 8 8 8 9 10 10 11 11 12 12 13

GFSWCAN_700_spd_102.txt.gz
Wind_Speed
31 34 33 32 31 31 29 28 25 23 21 20 20 20 20 15 16 21 25 23 22 22 18 18 18 16 16 12 11 8 8 6 7 6 4 4 3 1 2 3 5 3 2 9 14 7 9 11 8 9 7 9 5 3
36 37 34 32 31 31 30 28 25 23 22 21 21 19 20 18 16 19 25 18 21 22 22 11 13 16 13 10 14 13 11 6 2 4 2 3 6 7 7 3 8 5 5 6 12 11 13 7 6 8 8 6 5 2
33 35 35 31 31 30 30 28 26 23 22 23 21 20 21 23 18 20 16 17 19 26 24 24 19 17 17 12 14 20 17 12 15 12 7 5 6 7 4 5 10 15 18 8 18 14 12 9 8 10 9 5 6 7
28 34 34 30 30 30 29 28 25 23 23 23 22 20 18 23 18 22 18 18 18 20 26 24 17 13 13 15 14 17 14 15 16 12 11 13 12 7 6 12 16 17 16 5 15 14 18 13 10 11 10 5 2 2
26 31 33 29 29 28 28 26 24 23 23 22 20 19 18 18 15 20 18 15 14 17 15 4 5 7 18 16 16 13 12 11 11 15 15 18 17 13 12 13 8 16 6 5 1 9 10 14 12 11 9 6 4 5
29 28 29 29 28 28 27 24 25 24 22 21 19 18 20 18 16 18 23 21 15 15 18 22 10 5 11 16 17 18 14 12 14 8 11 7 4 6 6 6 7 9 2 1 5 4 6 6 5 6 8 5 5 5
29 28 28 27 26 25 24 25 25 24 22 17 16 17 20 19 24 25 22 14 13 12 18 11 7 8 11 14 19 21 20 17 12 13 16 11 9 10 11 13 10 9 5 6 4 3 4 5 3 4 5 7 7 7
28 28 25 25 25 24 24 24 23 23 22 16 19 20 20 21 18 21 20 16 13 8 15 7 6 8 8 11 18 19 22 21 18 16 15 13 10 9 8 10 10 7 8 8 7 5 7 6 6 6 7 8 9 10
27 26 25 23 22 22 21 22 21 22 23 20 21 19 22 29 33 28 28 11 15 14 8 8 6 2 4 11 18 17 15 18 18 21 21 13 13 9 7 6 5 6 9 8 8 8 7 9 11 12 11 12 14 16
26 25 23 22 22 21 18 18 19 20 23 22 23 25 30 34 32 20 19 18 14 19 19 17 13 9 6 5 19 20 14 14 7 15 16 17 16 17 16 15 14 8 6 6 7 10 13 15 17 18 18 17 19 19
25 24 23 21 19 14 14 12 10 16 24 34 37 30 30 30 29 23 13 16 14 9 15 20 18 16 12 8 11 18 9 11 7 7 9 7 10 15 18 17 15 16 16 15 16 18 18 20 21 20 20 21 20 18
26 21 19 18 15 19 12 5 9 14 39 46 46 38 28 26 12 9 14 11 8 13 9 9 14 19 17 14 9 14 11 10 5 10 8 4 10 9 13 17 17 17 17 18 19 21 21 20 21 22 22 22 22 22
19 23 20 16 18 16 9 9 17 24 40 38 38 28 16 13 9 12 16 14 14 9 15 11 10 10 7 4 3 7 6 5 6 7 5 7 9 14 16 18 18 19 18 16 17 17 16 17 17 17 19 20 20 20
23 21 16 18 22 14 14 24 25 31 27 32 18 13 9 7 10 10 16 19 18 13 12 12 10 11 10 3 1 0 6 7 8 6 7 10 15 16 16 16 16 16 17 18 16 15 17 17 17 17 18 18 18 18
19 18 22 24 23 22 24 28 25 29 21 16 14 9 11 10 15 14 20 17 16 11 11 9 10 10 5 4 4 4 5 4 5 6 8 9 13 16 16 16 17 18 16 14 14 13 13 12 13 13 14 14 14 14
24 25 28 22 23 29 22 25 25 23 11 14 11 11 12 15 17 16 20 20 15 14 17 14 7 4 7 4 4 5 3 5 5 6 7 7 8 10 12 13 13 13 12 11 10 9 8 8 8 9 9 9 9 9
23 23 25 25 22 28 23 21 26 11 5 7 14 13 13 13 13 15 18 19 16 15 16 8 7 5 4 4 4 5 5 6 5 5 6 6 8 9 9 9 8 8 8 8 7 7 6 6 6 6 6 5 4 4
24 27 29 27 25 23 23 23 17 8 11 16 14 13 12 12 13 16 17 17 16 14 15 7 3 6 3 4 4 6 6 7 6 6 4 4 4 5 6 5 5 5 5 5 4 4 4 4 4 4 3 2 2 3
29 29 22 18 18 18 17 13 10 5 8 9 8 9 11 12 14 15 14 13 13 14 13 7 4 5 7 8 5 4 4 3 1 0 0 1 1 1 1 1 2 3 4 4 4 4 5 5 5 4 4 5 6 6
28 24 14 13 16 14 13 8 11 8 13 13 13 13 13 13 14 14 14 14 13 13 12 7 8 8 5 4 5 4 4 3 2 2 2 2 3 3 3 4 4 5 6 6 7 7 7 8 8 8 8 8 9 9
22 19 16 13 13 7 8 11 10 17 20 16 17 15 14 14 13 13 12 12 12 12 11 8 6 8 9 8 6 4 4 3 3 4 5 5 5 6 7 7 8 8 9 9 10 10 10 10 10 11 11 12 12 12
14 13 14 13 7 7 8 13 18 18 16 18 15 14 14 12 11 11 10 9 9 9 11 13 11 9 8 6 5 4 4 6 7 7 7 6 6 6 6 7 8 9 9 10 10 11 11 12 12 13 13 13 13 13
14 15 14 11 5 6 15 21 18 17 12 16 16 14 12 11 10 12 10 14 17 17 15 12 10 8 7 6 5 5 5 5 6 7 8 8 8 9 9 9 10 10 9 9 10 10 11 11 11 12 12 13 12 12
9 5 4 2 4 7 22 16 17 16 18 17 13 13 15 16 13 12 15 14 13 13 12 11 10 8 6 6 7 8 9 9 8 7 7 7 8 8 9 10 10 10 11 11 12 12 12 12 12 12 12 12 12 12
4 3 3 4 8 14 13 17 16 14 18 16 15 15 16 14 13 12 13 11 12 13 13 12 11 11 11 11 10 10 10 10 10 10 9 9 9 9 10 10 10 11 11 12 12 13 13 13 13 13 14 14 15 15
3 1 2 4 10 11 12 14 13 16 17 15 14 16 16 14 6 7 11 14 15 14 14 13 12 11 11 11 11 11 10 10 9 8 9 9 9 10 10 11 12 13 13 13 13 13 13 12 12 12 12 12 12 12
2 1 3 6 8 11 12 15 16 19 19 11 17 18 13 5 5 12 15 16 15 13 12 11 11 10 9 10 10 10 10 10 10 10 10 10 11 11 11 11 12 12 13 14 13 13 12 11 11 11 11 11 11 11
4 1 4 7 7 10 14 17 19 20 14 13 20 14 6 7 10 16 16 16 14 12 10 10 9 9 9 10 11 11 11 11 11 11 12 12 13 13 12 12 13 13 14 14 12 12 11 11 11 10 10 10 9 9
4 4 4 8 9 12 14 19 15 17 15 14 22 12 8 10 15 16 17 16 13 11 10 8 8 8 9 10 12 12 13 13 13 13 14 14 14 14 13 12 13 14 13 11 11 11 10 10 10 9 9 9 9 9
5 6 6 9 11 12 17 20 17 15 13 18 18 11 12 16 18 19 17 15 13 11 9 8 7 7 8 10 11 13 14 14 15 15 15 15 15 14 13 13 13 13 12 10 9 9 9 9 9 10 10 11 12 12
10 10 10 10 14 14 18 20 18 14 16 20 15 14 13 16 17 16 16 15 13 10 8 7 6 6 7 9 12 13 14 15 15 15 15 14 13 13 13 13 13 13 11 9 8 8 9 10 10 10 11 11 12 13
13 14 14 15 15 17 19 21 18 18 21 19 19 18 14 15 15 14 13 12 11 9 6 5 4 4 6 8 11 13 15 16 16 15 15 14 13 13 12 12 12 11 10 10 10 10 10 11 11 11 12 13 13 13
15 16 17 16 17 19 20 19 20 21 22 23 21 19 19 18 17 16 15 13 10 8 5 3 1 3 5 8 11 13 15 15 15 15 14 13 12 11 11 10 10 10 10 10 11 11 11 12 12 12 12 13 13 12

GFSWCAN_700_spd_105.txt.gz
Wind_Speed
32 28 27 32 30 31 30 29 28 27 25 22 21 19 21 21 14 19 17 16 18 20 19 19 14 12 9 9 11 8 9 6 6 4 4 3 4 4 4 4 3 3 1 4 9 5 7 7 6 8 6 4 6 4
25 27 30 25 30 30 30 29 29 28 27 24 22 20 22 22 17 18 21 15 16 20 18 11 9 6 9 12 12 11 9 4 2 3 9 4 3 4 8 4 6 2 7 5 7 6 9 3 7 8 8 7 5 5
29 30 28 35 33 31 29 29 29 28 27 24 23 22 23 22 19 18 13 13 19 21 20 16 17 16 12 10 14 14 12 12 11 9 9 5 4 3 3 5 8 13 13 14 8 16 10 8 5 7 8 8 6 6
31 26 28 31 29 30 27 28 28 28 27 24 23 23 23 23 24 18 20 16 15 19 21 18 16 10 12 13 13 14 11 13 10 12 14 12 12 7 7 11 17 13 18 8 6 11 12 10 11 11 12 10 4 1
37 28 27 26 29 29 27 26 26 27 25 24 22 23 22 21 22 20 19 16 16 11 15 7 8 5 17 18 13 15 11 11 12 13 14 14 14 9 11 14 10 10 10 2 1 9 13 16 15 12 9 6 4 4
36 32 29 27 28 28 27 26 26 25 23 22 22 22 22 20 18 19 18 19 16 12 16 15 5 8 10 11 15 17 13 13 13 14 8 9 5 6 5 6 7 11 6 5 4 2 7 8 9 5 6 7 3 6
32 33 28 24 27 29 27 25 26 24 23 21 21 19 22 23 19 25 13 14 10 12 14 9 5 10 11 11 14 17 18 18 14 13 14 13 11 11 13 15 13 13 11 7 5 2 3 3 3 3 3 5 6 9
32 36 31 27 27 27 25 25 25 25 23 21 19 15 20 20 21 23 20 17 9 7 10 6 5 6 9 9 13 17 17 18 18 16 14 13 13 12 8 11 10 11 12 9 8 5 6 7 6 3 4 6 9 10
35 38 29 27 27 25 25 25 25 24 24 26 19 18 19 22 23 23 20 17 13 11 6 7 6 3 3 8 9 12 15 15 17 19 18 11 14 9 10 11 8 6 10 11 10 9 8 6 6 9 10 11 12 13
36 34 27 27 27 25 25 24 24 24 25 30 22 18 24 23 22 19 16 19 15 14 15 15 11 7 5 4 8 14 11 11 8 18 17 22 27 25 23 18 14 13 12 11 8 7 8 10 11 14 15 16 16 17
32 26 27 27 26 26 27 27 27 25 23 26 27 27 19 15 22 18 12 14 12 10 12 13 15 14 11 9 7 16 8 9 8 11 11 7 15 20 24 23 22 19 17 17 14 14 17 18 19 19 19 17 16 17
23 26 26 25 26 25 24 23 23 25 30 31 30 29 25 20 10 10 14 12 8 12 11 7 11 14 16 14 8 11 10 12 6 10 9 6 16 14 14 18 21 20 17 17 19 18 19 20 20 19 19 18 17 16
25 25 27 24 24 19 21 20 18 20 22 31 33 27 17 14 9 14 16 14 16 11 8 15 10 9 12 12 8 7 9 8 6 11 6 10 9 13 15 15 17 17 17 17 17 17 18 19 18 17 17 16 16 16
29 25 23 19 21 22 23 13 17 29 36 34 23 17 11 11 13 14 20 18 18 15 12 10 8 11 11 5 4 3 6 7 6 5 6 9 12 12 10 10 12 13 15 16 17 18 17 17 18 18 16 16 17 17
23 23 21 24 23 18 25 38 37 33 36 24 17 8 17 17 13 13 14 18 18 17 12 11 12 9 6 5 3 2 5 4 5 6 8 7 9 10 11 12 13 15 16 16 15 14 14 15 14 14 14 14 14 14
24 24 28 23 23 41 36 32 27 26 23 19 13 12 18 16 15 17 18 19 18 15 12 13 7 5 6 4 4 5 3 4 4 6 5 6 6 8 10 12 13 13 13 12 12 11 11 11 11 11 10 10 10 10
33 34 28 28 33 34 30 24 23 19 15 14 15 18 20 20 19 18 20 20 18 18 17 8 7 6 5 4 5 5 5 6 5 5 5 7 8 9 9 9 9 8 9 8 7 7 7 7 7 7 7 7 6 6
31 30 28 31 25 24 16 22 11 11 15 19 17 14 15 17 16 17 20 22 19 17 17 9 4 6 4 4 5 5 5 5 5 6 7 7 7 7 7 7 7 7 7 7 6 5 4 4 4 4 3 4 4 4
28 29 26 28 24 22 21 17 10 13 17 16 16 15 15 14 15 15 16 16 15 14 14 7 4 4 5 7 8 7 5 3 2 2 2 2 3 4 4 5 6 7 7 6 6 5 5 6 6 6 7 7 7 7
31 27 24 25 24 22 14 13 10 10 13 12 10 11 11 13 14 15 15 15 14 14 12 7 6 7 6 4 2 3 4 3 2 1 2 3 4 5 6 6 7 7 7 7 7 8 9 9 10 10 10 11 10 10
23 18 19 18 16 15 10 11 9 9 13 14 13 14 14 15 15 15 14 14 13 13 11 8 5 2 4 6 6 4 4 3 3 4 4 5 6 6 7 8 8 9 9 10 10 10 10 11 11 11 11 11 11 11
13 13 11 11 11 11 8 11 12 16 16 18 16 15 15 14 14 14 12 12 12 10 8 5 7 8 8 7 6 5 6 6 7 6 7 6 6 7 7 8 8 9 10 10 10 11 11 11 11 12 12 12 11 11
15 15 12 12 7 7 15 21 19 19 15 18 17 15 14 14 13 12 9 11 10 12 13 13 11 10 9 8 6 5 3 4 6 7 8 8 8 8 8 9 9 9 9 9 10 10 11 11 11 11 11 11 11 11
14 10 6 3 4 9 22 15 17 16 17 18 13 11 13 13 13 10 13 15 16 16 15 14 12 10 8 7 6 7 7 8 9 9 8 8 8 8 8 8 9 9 10 11 11 11 11 11 12 12 12 12 12 12
6 5 5 5 7 16 15 16 16 14 19 16 14 12 16 12 11 11 14 14 15 16 15 13 11 10 9 9 9 9 10 10 10 9 9 9 9 9 9 10 10 11 11 12 12 12 12 12 12 13 12 12 12 12
4 3 3 6 13 13 13 16 12 16 18 14 12 15 14 12 7 7 13 15 15 14 13 13 12 11 10 10 10 10 10 10 10 10 10 10 10 10 11 12 12 12 12 13 14 14 13 12 11 11 11 11 11 11
4 4 5 7 10 12 14 13 14 19 16 8 16 17 12 5 5 11 15 17 16 15 14 12 10 9 9 9 9 10 10 10 10 10 11 11 12 12 12 12 12 13 13 14 14 13 12 11 11 11 11 11 10 10
3 3 5 6 8 9 12 15 16 16 12 13 19 13 8 5 6 15 18 19 18 16 14 11 9 8 8 8 9 10 10 11 11 12 12 13 13 14 13 13 13 13 13 14 13 11 10 10 10 10 9 9 8 8
3 3 3 6 7 9 11 15 12 15 17 14 20 15 6 6 12 15 17 17 16 15 13 10 8 7 7 8 9 10 11 12 13 13 13 13 13 13 12 12 12 12 13 13 12 11 10 10 9 9 9 8 9 9
2 4 3 4 6 8 11 14 13 15 18 13 17 15 8 8 15 17 18 17 15 13 11 9 8 6 5 6 8 10 11 13 14 14 14 14 14 14 13 13 13 13 13 11 11 10 10 9 10 10 10 10 11 11
7 6 5 4 5 8 8 13 15 15 16 14 17 17 10 14 18 18 18 17 15 14 11 9 7 5 4 5 7 9 11 13 14 15 15 14 14 13 13 12 12 12 11 11 11 11 10 11 11 11 11 12 12 12
9 9 10 10 9 9 12 12 17 18 15 14 18 15 14 15 16 16 16 16 15 14 11 9 7 4 2 2 4 7 10 12 13 14 14 14 13 13 12 12 12 11 11 11 11 11 11 11 12 12 12 12 12 12
13 16 16 15 14 13 13 13 16 17 16 16 18 19 20 19 19 20 19 18 18 16 14 11 8 5 3 3 5 7 9 11 13 13 14 13 13 13 12 12 12 12 12 12 12 12 12 12 12 12 11 11 11 10

GFSWCAN_700_spd_108.txt.gz
Wind_Speed
27 29 24 24 26 27 27 29 27 27 27 26 25 23 21 20 20 13 11 11 11 19 16 19 17 14 10 10 11 11 10 6 4 3 5 5 3 4 3 5 4 5 4 2 4 4 4 5 4 4 2 2 5 3
34 28 30 23 24 27 28 28 28 28 28 28 26 24 22 21 23 16 17 15 12 18 22 17 13 9 10 13 16 12 9 7 2 2 6 5 7 6 6 2 5 2 9 7 4 4 11 8 5 5 6 5 5 6
41 37 27 26 30 26 25 26 27 28 28 28 26 25 22 22 24 20 19 15 13 20 17 12 7 14 19 14 13 12 9 8 8 8 7 5 4 11 5 4 6 10 11 11 8 8 16 10 4 5 6 6 6 5
33 34 32 29 32 32 28 29 26 27 27 28 26 24 22 23 24 20 21 19 11 14 18 16 11 16 14 16 15 13 14 11 10 9 10 10 10 8 8 9 12 15 11 13 8 10 11 11 9 7 6 7 8 7
30 34 34 34 30 29 31 28 25 25 25 27 26 24 23 23 24 19 21 19 19 16 11 12 16 14 12 16 15 14 14 11 13 15 14 11 11 10 11 8 10 9 12 5 7 9 10 10 11 12 10 9 10 6
25 30 34 34 28 25 30 27 25 24 23 24 24 23 22 25 22 17 19 20 19 14 16 16 9 9 12 14 16 19 17 14 13 13 13 11 5 7 5 6 12 11 14 6 4 2 4 6 8 8 8 7 6 3
23 26 31 35 33 27 26 27 25 23 23 23 23 21 23 25 22 18 17 16 17 16 18 10 7 8 14 12 11 14 17 16 13 14 14 13 10 12 15 12 19 15 15 9 3 2 2 4 4 5 4 5 6 3
25 25 30 33 33 28 25 26 25 22 23 23 22 21 23 27 23 19 19 17 9 11 11 7 7 9 7 10 12 14 16 15 16 16 13 11 12 11 10 15 12 12 11 9 9 7 6 8 7 4 3 4 5 6
27 26 27 34 32 27 24 25 22 23 24 23 23 21 19 27 23 22 16 17 15 14 7 8 8 5 7 10 11 9 13 14 14 16 17 13 14 9 10 10 12 13 10 8 10 10 10 9 6 6 7 9 10 10
28 27 31 37 32 28 25 24 22 24 25 30 27 14 20 26 24 20 16 17 18 20 19 18 12 11 5 6 9 11 8 11 8 15 14 19 20 25 24 24 23 20 17 16 13 10 9 9 10 11 14 16 16 15
29 30 35 38 29 27 27 25 26 29 34 30 19 12 14 26 19 17 13 16 16 12 17 20 17 16 10 7 6 10 5 6 5 9 9 6 16 21 21 24 24 23 22 22 19 16 15 16 18 18 19 19 17 18
30 32 38 36 28 28 27 28 31 36 39 30 15 18 17 18 11 11 13 11 10 14 12 8 13 18 19 14 8 6 9 7 6 8 9 6 21 20 20 17 18 19 19 20 19 18 18 19 19 18 18 18 17 17
30 35 36 28 29 29 29 32 32 30 29 25 21 22 19 14 12 13 18 16 16 12 10 10 13 14 14 13 9 7 9 8 5 8 6 12 13 12 13 15 16 16 16 17 18 18 18 18 19 19 18 18 18 18
32 27 28 30 29 31 34 31 31 27 28 21 27 15 16 11 14 15 21 22 22 17 15 8 11 9 11 10 8 5 7 6 6 5 7 10 13 14 14 15 15 14 15 16 16 17 18 19 19 19 19 19 17 16
29 29 30 33 30 26 25 30 35 32 35 14 28 9 19 17 15 16 8 18 20 17 15 11 10 9 11 7 5 4 4 4 6 8 10 9 11 14 13 13 13 14 15 15 16 16 17 17 16 15 14 14 13 13
30 27 25 25 31 29 23 28 30 31 30 26 15 16 24 18 17 17 15 16 17 17 16 13 10 6 7 4 5 6 4 5 6 7 7 8 9 7 8 9 10 11 12 12 12 12 12 12 12 11 11 10 10 10
23 26 29 31 28 22 27 34 37 34 15 16 17 15 20 20 20 18 19 17 19 20 19 9 7 7 5 5 5 5 6 6 7 7 7 7 9 9 10 9 9 9 9 9 9 8 8 8 8 8 8 7 7 6
30 27 30 37 41 31 22 24 19 11 18 25 24 26 26 25 22 19 19 19 20 19 19 11 5 8 4 4 5 5 5 5 6 7 8 8 7 7 7 7 7 7 6 6 6 6 6 6 6 6 6 6 7 7
33 37 39 39 37 23 24 18 14 18 24 21 21 19 19 20 19 17 19 21 21 21 18 10 5 5 6 6 6 7 7 6 4 2 2 2 3 5 6 7 8 8 8 8 8 7 7 7 8 8 8 9 9 9
35 35 28 27 19 20 11 10 16 17 20 20 19 19 18 17 17 18 19 19 18 16 17 10 8 6 6 7 4 3 3 3 2 1 2 3 4 5 6 7 8 8 8 9 9 10 10 11 11 12 12 12 12 12
29 28 24 21 19 11 9 11 11 16 18 17 15 15 16 16 16 17 17 18 17 16 14 10 7 6 4 7 7 6 5 4 3 3 5 6 7 7 7 8 8 9 9 9 9 10 11 11 12 13 12 12 12 13
24 23 21 20 17 13 8 13 10 14 14 16 16 15 16 16 16 17 16 16 15 13 10 8 7 10 9 9 8 6 5 5 4 3 2 3 4 5 6 6 7 7 8 9 10 10 11 11 12 12 12 12 12 12
17 16 14 14 10 9 10 15 16 16 13 16 16 15 16 16 16 16 12 15 13 13 11 12 12 12 11 9 7 6 4 3 3 5 5 5 5 5 6 6 7 8 8 8 9 10 11 12 12 12 12 11 12 12
14 13 9 6 6 8 20 16 18 18 18 20 16 13 15 15 16 14 10 13 14 16 17 16 15 12 10 9 7 6 6 6 7 7 7 7 6 6 6 7 7 8 9 10 10 11 12 12 12 13 13 12 12 12
6 5 4 5 11 16 14 16 18 15 21 18 15 12 15 14 11 9 14 18 19 19 19 17 15 13 11 9 7 7 7 7 7 7 8 7 7 7 8 8 9 9 10 10 11 12 13 13 12 12 11 11 11 11
2 2 3 8 15 16 14 16 13 16 19 16 12 14 16 13 8 8 16 17 19 18 17 16 13 11 10 9 7 6 6 6 7 7 8 8 8 9 10 10 11 11 11 11 12 13 13 12 11 11 11 11 11 11
3 4 8 12 15 17 16 14 14 19 18 9 15 19 13 7 5 12 18 22 22 20 18 16 14 12 10 8 6 5 5 6 7 8 9 10 10 11 11 12 12 12 12 12 13 13 12 10 10 10 10 10 10 10
5 8 10 11 14 14 15 14 17 18 13 12 19 13 10 7 5 15 18 21 19 17 15 14 12 10 8 7 5 5 5 6 7 8 9 10 11 12 12 12 11 11 11 12 12 11 10 10 9 8 8 8 8 9
6 7 8 10 11 11 13 16 13 15 14 15 20 15 9 7 8 16 18 19 19 18 16 13 11 10 8 6 5 5 5 7 8 10 11 12 13 12 13 12 11 11 11 12 11 11 10 9 9 9 9 9 10 10
4 4 5 6 7 7 10 14 14 13 16 16 18 16 10 6 12 17 19 19 19 19 18 16 14 11 8 6 4 4 5 7 9 10 12 12 13 13 12 12 12 12 12 11 11 10 10 10 10 11 11 11 11 12
4 3 3 4 5 7 7 10 13 14 16 16 16 18 14 11 16 19 21 22 21 19 17 15 13 11 9 7 4 2 3 5 7 9 11 12 13 13 12 12 12 12 12 11 11 11 11 11 11 12 12 12 12 12
5 6 7 8 7 7 9 11 13 15 15 17 17 17 18 17 18 20 22 21 21 21 20 18 16 14 11 8 5 2 2 4 6 8 10 11 12 12 12 12 12 12 12 12 12 12 12 12 12 12 12 12 12 12
6 8 11 13 12 11 11 12 14 16 19 18 17 18 20 22 25 24 23 23 24 24 22 21 18 15 13 10 8 6 5 5 7 8 9 11 12 12 12 12 12 12 12 13 12 12 11 11 12 12 11 11 10 9

GFSWCAN_700_spd_114.txt.gz
Wind_Speed
33 38 32 31 28 31 24 21 21 22 22 23 24 23 21 19 18 16 8 13 11 7 8 8 7 7 5 7 12 13 11 9 8 8 7 8 9 10 10 9 5 6 7 10 10 5 1 14 7 6 5 12 12 8
27 37 32 33 35 26 28 26 25 26 24 23 23 23 22 20 19 17 13 13 14 12 8 7 9 10 14 13 13 12 12 13 5 7 7 7 10 10 13 7 9 4 8 5 6 7 10 13 10 2 5 9 12 9
39 36 37 31 33 31 28 25 25 24 24 24 23 22 23 21 20 18 15 14 15 17 10 10 9 10 10 10 9 9 9 5 4 10 12 8 6 11 11 12 19 10 12 6 8 10 12 11 8 6 8 11 10 7
31 31 37 35 31 29 30 27 23 22 22 23 24 22 22 21 21 19 18 12 14 13 12 6 11 12 7 13 13 9 13 13 12 13 11 10 10 6 14 14 13 9 13 14 9 14 18 12 9 9 9 9 7 9
32 31 32 31 26 29 28 28 24 20 18 19 20 20 21 21 20 19 17 13 15 14 9 6 5 12 19 14 10 7 9 12 14 14 12 13 11 13 10 9 9 7 14 17 12 16 16 11 9 10 10 10 10 11
28 33 37 34 34 27 27 29 24 24 20 17 16 17 19 21 20 18 14 14 13 15 19 16 7 11 17 15 14 5 10 13 13 15 13 15 9 9 8 7 11 14 17 14 15 16 12 9 8 7 8 9 10 10
19 24 32 41 35 32 29 26 28 25 20 17 15 16 20 21 23 20 15 14 14 16 16 12 8 12 12 9 7 10 14 16 16 18 18 14 10 13 14 11 13 14 15 13 15 11 10 10 9 9 9 9 8 9
18 19 22 24 26 31 36 31 22 24 24 20 18 17 21 23 23 21 16 10 10 10 14 9 8 11 10 10 8 7 11 13 12 12 13 12 11 13 9 13 11 12 9 13 15 15 14 12 11 10 10 9 9 8
16 17 17 22 26 22 29 29 24 19 19 18 19 19 22 24 24 20 23 20 10 11 7 12 15 6 4 5 5 6 9 10 8 14 14 8 10 9 13 16 12 13 16 19 21 17 13 14 12 7 7 9 11 10
16 17 18 18 21 27 34 29 25 20 21 19 17 21 25 23 17 18 19 19 17 19 22 18 12 10 8 6 5 5 6 7 6 12 5 14 15 18 18 21 23 22 22 22 22 21 16 16 14 14 14 13 12 13
21 18 17 19 19 25 32 32 26 22 21 20 20 19 15 14 19 19 12 13 13 10 18 25 19 18 15 12 10 6 4 3 4 5 9 4 12 18 18 19 21 22 20 18 19 18 17 15 16 16 13 14 13 12
24 22 18 18 20 25 32 32 27 22 20 20 21 21 19 16 12 13 12 13 10 12 16 13 16 14 16 13 9 5 6 5 6 4 5 5 15 15 16 17 17 17 17 16 14 15 15 14 14 14 14 14 14 14
26 24 20 18 20 29 31 31 25 20 18 24 25 23 9 16 15 13 15 12 16 15 14 15 15 11 15 14 7 6 5 7 6 5 5 10 11 12 14 15 14 13 13 14 15 14 14 14 14 14 14 14 15 16
28 26 20 20 24 33 31 27 25 22 25 23 23 9 10 13 14 11 18 15 19 19 15 7 12 7 11 8 7 4 6 6 5 4 8 12 12 13 14 14 13 13 13 14 15 15 14 14 14 14 14 15 14 14
31 27 24 24 29 34 30 27 25 26 29 13 16 7 10 8 11 15 15 15 15 15 17 14 9 8 8 6 5 6 4 5 5 8 10 10 10 10 11 11 12 11 11 12 13 13 13 13 13 12 13 13 13 12
31 28 27 27 38 32 26 28 25 22 30 14 7 5 11 14 9 14 19 15 10 13 15 13 9 5 7 5 5 6 4 4 2 6 7 8 9 10 9 10 11 12 11 11 11 11 11 11 11 11 11 11 11 10
34 29 31 41 36 30 28 26 25 25 23 13 10 6 7 12 18 13 11 16 14 18 19 11 8 8 5 5 6 7 11 12 12 11 9 9 9 10 10 9 9 9 10 10 11 12 12 12 11 11 12 12 11 11
30 35 43 40 36 32 29 27 24 18 22 23 22 6 13 11 12 18 13 13 15 19 20 13 10 10 5 5 11 9 9 9 9 10 10 9 6 5 6 7 8 9 10 11 11 11 12 12 12 12 12 12 12 12
35 40 38 34 33 29 28 32 30 10 20 25 33 23 14 15 13 16 17 16 17 21 22 16 7 10 15 13 12 10 11 10 10 8 4 3 3 4 6 8 9 10 10 11 11 11 12 12 13 13 13 14 14 14
32 34 35 37 33 27 17 14 31 22 16 21 26 24 21 18 13 14 14 16 17 19 21 22 18 9 5 7 9 11 12 8 4 3 1 1 3 5 6 8 9 10 11 12 12 12 13 12 12 12 13 14 15 15
36 35 35 32 21 26 10 18 28 26 24 19 26 27 23 19 16 17 17 17 20 24 25 22 18 14 12 11 12 7 6 5 4 3 1 1 3 4 5 5 6 6 6 7 8 10 11 12 14 15 15 15 15 15
36 34 32 26 29 23 10 17 22 21 23 24 23 21 20 20 20 20 18 19 21 22 19 16 15 14 13 11 7 7 6 5 4 3 0 2 3 3 3 4 5 6 7 8 10 12 13 13 15 15 17 17 17 16
43 35 21 16 10 7 12 17 18 17 12 22 22 18 18 19 18 18 17 20 20 19 21 18 16 13 11 10 10 9 8 7 4 2 4 4 3 3 4 5 7 8 10 10 13 14 15 16 16 18 19 19 18 16
27 13 5 5 5 5 16 13 16 15 14 20 19 15 14 17 17 20 21 21 17 19 18 17 15 14 13 13 12 10 8 5 5 6 5 4 4 4 6 7 9 10 11 13 14 15 16 17 18 19 19 18 17 17
13 12 7 9 9 10 12 17 16 16 14 20 18 16 12 15 17 20 23 22 20 20 20 19 17 16 16 14 12 10 7 6 7 6 4 4 4 5 6 7 9 10 11 12 13 14 15 17 17 18 18 17 16 16
7 6 8 9 13 13 14 17 19 19 15 17 17 14 13 14 12 8 18 15 17 17 18 18 18 18 16 15 12 9 8 8 7 5 4 3 4 6 7 8 8 9 11 12 14 15 15 16 17 17 17 16 16 17
7 7 12 12 13 14 16 18 16 17 17 13 15 14 13 7 8 10 9 13 15 18 19 19 18 17 16 14 12 11 11 9 6 4 3 2 4 5 7 8 9 10 11 12 13 15 16 16 16 16 16 16 15 15
7 7 12 14 15 15 17 16 16 16 16 11 15 13 9 9 8 9 10 14 15 18 20 21 21 20 17 15 14 13 12 10 7 5 3 2 2 4 6 7 9 10 11 12 13 14 14 15 15 16 16 16 15 16
5 9 12 15 17 15 15 16 14 15 15 16 18 18 15 13 9 8 12 17 19 21 23 23 22 19 17 17 16 15 13 11 10 8 6 3 2 3 5 6 8 9 11 12 13 13 14 15 15 16 16 17 16 16
7 8 11 12 14 11 12 12 12 12 14 15 15 17 17 15 13 11 13 19 22 24 24 23 20 20 20 19 17 17 16 14 13 10 8 6 5 4 5 7 8 10 11 12 13 14 14 15 16 16 16 17 18 17
6 6 6 8 9 9 9 10 13 14 14 15 17 18 18 18 17 14 15 21 25 26 27 26 27 26 24 22 21 20 18 17 15 13 11 10 8 8 8 9 10 11 12 13 14 15 15 15 15 16 16 16 17 17
6 6 6 6 6 7 8 9 10 12 15 17 17 18 20 21 20 18 18 22 27 29 30 29 29 28 27 26 25 23 21 20 18 16 14 12 11 12 12 13 13 14 14 15 15 16 16 16 16 16 16 16 16 16
6 6 6 7 8 9 10 11 11 12 14 16 18 20 22 24 23 23 23 26 29 29 31 33 34 31 29 26 26 25 24 22 20 18 17 16 14 15 16 16 16 16 16 17 17 17 17 17 17 16 16 16 16 16

GFSWCAN_700_spd_117.txt.gz
Wind_Speed
30 29 23 35 25 19 16 18 21 22 20 20 23 22 20 18 17 15 14 12 12 9 10 13 8 8 6 7 10 11 10 4 8 7 5 6 6 11 12 12 15 10 6 8 8 7 4 19 13 11 6 5 10 15
36 33 25 34 29 23 19 18 17 17 20 18 20 21 21 20 18 17 16 12 13 12 8 10 8 8 9 7 10 8 8 9 4 4 5 5 10 7 14 9 18 7 12 5 7 3 11 14 7 2 5 9 10 10
26 32 36 29 27 27 17 22 21 18 16 17 17 19 20 20 19 19 17 12 10 11 8 6 9 8 5 5 7 9 6 2 4 5 7 6 3 8 7 9 14 9 11 11 4 8 11 10 7 6 9 11 11 9
25 27 24 26 28 27 27 22 20 18 17 20 18 17 19 19 19 19 19 12 11 11 6 9 7 8 8 5 10 8 8 10 11 10 9 8 9 5 10 10 12 10 8 9 5 9 13 10 10 8 6 8 9 7
26 30 33 33 30 33 32 21 20 19 19 18 17 18 19 20 20 19 18 13 12 13 6 6 6 5 9 8 11 9 5 6 11 13 12 11 10 11 9 7 3 6 9 10 6 9 9 9 8 7 6 7 9 11
25 25 29 34 33 26 23 23 24 20 18 13 12 15 18 20 19 19 17 14 11 13 13 11 5 6 11 9 11 7 5 8 9 11 10 14 9 8 5 5 6 7 11 12 11 12 11 10 9 8 8 7 9 11
25 33 25 27 28 27 26 27 24 21 17 13 10 12 16 19 21 21 17 14 13 11 12 6 5 5 7 9 9 5 7 10 12 16 17 14 10 12 11 12 12 11 9 7 11 13 15 16 12 11 11 11 10 11
18 27 35 33 29 33 26 27 24 22 16 13 11 11 14 18 20 20 15 15 11 9 10 6 5 6 6 7 7 7 10 10 12 15 13 8 6 9 7 12 8 8 10 9 12 14 14 13 12 12 10 10 10 10
19 18 22 35 37 31 29 26 21 16 17 17 16 14 14 17 19 18 17 15 14 14 6 8 11 4 3 5 3 4 6 8 8 9 6 5 5 7 12 14 11 10 12 16 18 19 17 14 12 11 9 11 12 11
17 18 20 22 28 37 31 29 27 19 16 15 14 17 15 14 17 19 16 16 14 18 18 13 8 11 4 6 8 5 5 5 5 6 4 9 15 13 14 15 18 20 19 19 20 19 19 17 14 13 12 12 12 13
16 16 19 22 25 27 30 28 28 22 21 21 15 9 11 18 19 18 12 13 10 11 14 20 16 13 10 10 9 5 4 3 4 3 5 4 10 15 17 18 18 17 17 16 15 16 16 16 16 13 11 13 13 13
18 16 15 19 21 28 31 30 27 23 19 14 12 22 16 17 11 10 12 10 10 14 10 11 11 14 16 12 8 4 5 4 5 4 4 4 12 11 11 11 12 15 13 13 12 12 14 14 14 14 14 14 14 14
18 18 15 17 19 24 31 28 24 19 15 15 23 24 9 15 13 12 16 15 15 9 14 17 15 14 12 11 7 5 5 6 4 5 5 7 11 9 9 10 12 11 11 11 11 11 12 12 13 14 14 15 16 16
21 21 18 16 18 24 27 29 26 19 16 19 18 16 7 10 14 13 18 20 22 19 16 10 10 10 12 10 8 5 6 5 5 5 6 8 8 9 9 8 9 10 10 10 11 10 11 11 11 12 12 12 12 13
24 23 21 18 17 29 30 28 25 22 18 15 9 9 11 7 12 16 14 17 15 13 12 14 10 9 9 7 6 5 4 4 6 5 7 7 7 7 8 8 8 8 9 10 11 11 11 10 10 10 10 10 10 10
25 26 23 19 25 32 29 26 26 22 22 11 10 9 7 5 17 20 17 15 11 10 13 16 11 6 7 5 6 6 4 5 4 4 7 7 6 7 8 8 8 8 7 8 8 9 9 9 10 10 11 11 11 11
29 28 24 21 33 33 26 31 28 21 20 11 10 17 9 10 13 17 17 15 13 11 19 14 8 7 5 6 7 9 14 13 10 9 7 6 8 8 6 5 6 8 8 9 10 10 11 11 10 10 11 11 11 11
26 25 23 31 38 33 31 27 23 17 19 29 16 10 3 5 9 12 9 13 15 14 18 13 10 11 7 7 12 8 8 8 8 9 9 8 6 3 3 5 6 7 9 10 11 12 12 13 13 14 14 13 13 12
29 26 29 42 33 31 30 24 22 11 18 25 32 23 11 3 4 6 11 11 14 19 22 19 8 13 19 16 12 9 10 9 8 9 5 3 1 1 3 4 6 8 10 11 12 12 13 15 16 16 16 16 15 16
24 29 41 33 26 24 21 11 27 10 10 20 32 30 24 21 17 14 11 13 15 19 21 23 25 12 3 3 5 8 10 11 8 4 3 3 1 2 4 6 7 8 9 9 9 10 10 10 12 14 15 17 17 16
37 39 34 30 24 18 11 8 18 20 20 11 13 19 18 22 19 14 12 12 17 22 25 23 20 20 16 12 11 11 7 5 6 6 4 2 1 2 4 6 6 6 6 5 5 8 10 12 13 14 15 16 16 17
36 35 32 31 27 6 7 8 14 20 18 19 18 14 14 18 21 20 16 17 19 19 17 17 16 15 14 13 12 8 6 6 6 5 3 1 2 4 6 6 6 5 5 6 7 8 9 11 13 14 16 18 17 17
34 33 31 23 8 12 13 15 16 16 14 14 19 20 21 21 18 15 17 21 21 17 16 17 17 15 12 12 11 9 8 8 7 5 3 3 5 6 6 6 5 5 5 8 9 9 10 12 15 15 18 19 18 16
33 31 24 10 12 10 16 14 16 18 19 16 17 17 16 18 15 19 23 20 16 15 17 17 18 17 15 13 11 10 9 8 7 5 4 6 7 6 5 6 6 7 7 8 9 9 11 13 14 15 17 18 18 18
25 20 10 15 15 13 17 19 19 19 12 18 17 17 11 11 15 19 20 18 15 16 14 16 16 17 15 13 13 12 10 9 7 6 7 7 6 5 5 5 6 7 8 9 10 11 12 12 14 15 16 17 17 17
15 11 10 10 12 12 13 16 18 18 14 14 16 16 13 12 13 10 18 17 17 18 17 16 16 16 15 15 14 12 11 11 9 8 8 7 6 4 4 4 5 5 7 8 9 9 11 13 14 14 15 16 17 17
6 5 11 13 13 15 16 16 16 17 16 11 14 14 11 7 8 12 9 10 11 13 14 16 17 17 16 15 16 16 14 11 11 12 10 8 6 5 3 2 2 4 6 8 10 11 11 12 14 15 16 16 16 17
8 9 14 14 16 15 17 16 16 15 16 14 14 13 8 9 9 8 7 10 12 15 17 18 20 20 20 19 18 15 15 14 14 13 12 10 8 7 5 3 2 4 6 7 9 11 12 12 13 14 15 15 16 17
11 11 11 14 14 15 15 17 15 15 15 18 17 19 14 14 12 8 6 9 13 15 18 21 22 21 20 20 20 21 20 17 16 15 14 12 10 10 8 6 6 6 7 9 10 12 13 15 15 15 16 15 15 16
6 8 10 13 15 11 12 11 11 12 11 14 16 17 17 16 15 14 12 10 14 18 20 21 22 20 20 21 22 22 20 20 19 18 16 15 14 14 11 10 9 10 11 12 13 14 16 17 17 18 18 17 17 16
6 7 7 9 10 11 10 9 12 12 13 13 14 16 17 18 18 17 16 15 15 20 23 24 25 24 24 25 24 24 23 20 19 18 18 19 18 15 14 13 12 13 14 15 16 17 18 19 19 19 19 19 18 18
6 6 5 6 7 8 9 10 10 11 13 15 15 16 17 18 20 20 20 20 19 20 25 27 27 28 29 28 27 26 24 24 24 23 22 20 19 19 17 16 14 15 17 17 18 19 20 20 21 21 21 20 19 18
7 7 7 7 7 8 9 9 10 10 12 13 15 17 19 20 20 22 21 22 23 23 24 28 30 32 31 28 26 25 26 26 24 24 22 22 22 20 19 19 17 17 20 21 22 22 21 22 22 22 21 20 19 19